[[{"header":{"parameterUnit":"m.s-1","parameterCategory":1,"la1":30.2991,"la2":30.254,"lo1":-89.0895,"lo2":-89.0444,"dy":0.0017,"dx":0.0017,"nx":28,"ny":28,"refTime":"2024-04-05T09:00:00:Z","depth":0,"parameterNumber":2,"parameterNumberName":"U-component_of_WINDS"},"data":[0,0,0,0,0,0,0,0,0,0,0,0,0,0,0,0,0,0,0,0,0,0,0,0,0,0,0,0,0,0,0,0,0,0,0,0,0,0,0,0,0,0,0,0,0,0,0,0,0,0,0,0,0,0,0,0,0,0,-1.6096,-1.6097,0,-1.6155,-1.6156,-1.6157,-1.6148,-1.6147,-1.6146,-1.6145,-1.6208,-1.621,-1.6213,0,0,0,0,0,0,0,0,0,0,0,0,0,-1.5976,-1.5978,-1.6096,-1.6097,-1.6097,-1.6155,-1.6156,-1.6157,-1.6148,-1.6147,-1.6146,-1.6145,-1.6207,-1.621,-1.6213,0,0,0,0,0,0,0,0,0,0,0,0,0,-1.6031,-1.5979,-1.6096,-1.61,-1.6101,-1.6155,-1.6156,-1.6157,-1.6149,-1.6147,-1.6146,-1.6144,-1.6206,-1.6209,-1.6213,-1.6267,0,0,-1.6225,-1.6227,0,0,0,0,0,0,0,0,-1.6028,-1.6036,-1.6099,-1.61,-1.6101,-1.6143,-1.6137,-1.6194,-1.6149,-1.6131,-1.6145,-1.6144,-1.6187,-1.6193,-1.6207,-1.627,-1.6273,-1.6225,-1.6228,-1.6229,-1.6231,0,0,0,0,0,0,0,-1.6024,-1.6033,-1.6119,-1.61,-1.6101,-1.6099,-1.6106,-1.6148,-1.6167,-1.6132,-1.6132,-1.6139,-1.6188,-1.6203,-1.6209,-1.6274,-1.6225,-1.6229,-1.6231,-1.6233,-1.6385,-1.6386,0,0,0,0,0,0,-1.6019,-1.603,-1.6118,-1.6121,-1.606,-1.6103,-1.611,-1.6131,-1.6166,-1.617,-1.614,-1.6138,-1.6197,-1.6204,-1.6211,-1.6276,-1.6229,-1.6233,-1.6235,-1.6383,-1.6385,-1.6387,0,0,0,0,0,0,-1.6016,-1.6027,-1.6115,-1.6075,-1.6087,-1.6106,-1.613,-1.6133,-1.6149,-1.6172,-1.6176,-1.6152,-1.6197,-1.6205,-1.6253,-1.6279,-1.6235,-1.6238,-1.6381,-1.6384,-1.6386,-1.6408,0,0,0,0,0,0,-1.6013,-1.6026,-1.6046,-1.6076,-1.6089,-1.6156,-1.6132,-1.6135,-1.6155,-1.6153,-1.6185,-1.6189,-1.6196,-1.6248,-1.6257,-1.6283,-1.6241,-1.6379,-1.6382,-1.6385,-1.6406,-1.6411,-1.6416,0,0,0,0,0,-1.6009,-1.6051,-1.6048,-1.6058,-1.6115,-1.6158,-1.6165,-1.6173,-1.6157,-1.6178,-1.6193,-1.6188,-1.6274,-1.6253,-1.6263,-1.6291,-1.6377,-1.6381,-1.6385,-1.6403,-1.641,-1.6416,0,0,0,0,0,0,-1.6024,-1.6055,-1.6051,-1.6104,-1.6128,-1.6156,-1.6183,-1.618,-1.621,-1.6207,-1.6215,-1.6222,-1.6271,-1.6286,-1.6261,-1.6345,-1.6324,-1.633,-1.6334,-1.6341,-1.6346,-1.6342,-1.6245,0,0,0,0,0,-1.6033,-1.6066,-1.6091,-1.6135,-1.6147,-1.6163,-1.6182,-1.6186,-1.6212,-1.6222,-1.6241,-1.6266,-1.6299,-1.6321,-1.6352,-1.6408,-1.6414,-1.6432,-1.6437,-1.6442,-1.6447,-1.6477,-1.6486,-1.6399,-1.6399,-1.6399,0,0,-1.6053,-1.6074,-1.6094,-1.6138,-1.6158,-1.6191,-1.6172,-1.6208,-1.6233,-1.6228,-1.6274,-1.6289,-1.6318,-1.637,-1.6394,-1.6383,-1.6472,-1.6447,-1.645,-1.6453,-1.6482,-1.649,-1.6498,-1.6402,-1.6402,-1.6401,0,0,-1.6107,-1.6126,-1.6164,-1.6184,-1.6213,-1.6224,-1.6233,-1.6262,-1.6271,-1.6318,-1.6314,-1.6344,-1.6401,-1.6422,-1.644,-1.6502,-1.6498,-1.6512,-1.6541,-1.657,-1.6577,-1.6583,-1.6605,-1.6613,-1.6517,-1.6517,-1.6517,0,-1.6128,-1.6178,-1.6185,-1.6222,-1.6241,-1.6237,-1.6277,-1.6296,-1.6334,-1.6348,-1.6336,-1.6407,-1.6427,-1.6484,-1.6499,-1.6513,-1.6525,-1.6508,-1.6575,-1.6582,-1.6587,-1.6609,-1.6617,-1.6519,-1.6518,-1.6518,-1.6518,0,-1.6203,-1.6238,-1.6265,-1.6302,-1.6325,-1.6363,-1.6376,-1.6399,-1.64,-1.6412,-1.646,-1.6483,-1.6519,-1.6533,-1.6535,-1.659,-1.6583,-1.6573,-1.6552,-1.6597,-1.6617,-1.6625,-1.6521,-1.652,-1.652,-1.6519,0,0,-1.6268,-1.6307,-1.6318,-1.6334,-1.6366,-1.6394,-1.6432,-1.6467,-1.6486,-1.6513,-1.6545,-1.6593,-1.6584,-1.6605,-1.661,-1.6636,-1.6683,-1.6623,-1.6623,-1.6633,-1.6746,-1.6753,-1.6763,-1.6681,-1.6682,-1.6683,-1.6743,0,-1.6325,-1.6391,-1.6398,-1.6458,-1.6491,-1.6487,-1.652,-1.6544,-1.6556,-1.6586,-1.6599,-1.6633,-1.6619,-1.6631,-1.6657,-1.6672,-1.6706,-1.6668,-1.6711,-1.6713,-1.6704,-1.6773,-1.6781,-1.6837,-1.6751,-1.6753,-1.6754,0,-1.64,-1.6428,-1.6491,-1.6519,-1.6533,-1.6562,-1.6595,-1.6623,-1.665,-1.6657,-1.668,-1.6681,-1.6721,-1.6698,-1.6753,-1.6727,-1.6745,-1.6755,-1.6758,-1.6762,-1.6736,-1.678,-1.6854,-1.6863,-1.6766,-1.6765,-1.6764,0,-1.6441,-1.6495,-1.654,-1.6554,-1.6587,-1.6608,-1.6623,-1.6649,-1.6669,-1.6698,-1.6712,-1.6745,-1.6764,-1.679,-1.68,-1.6782,-1.6855,-1.6832,-1.6862,-1.6862,-1.6877,-1.6876,-1.6956,-1.6889,-1.6889,-1.6889,-1.6888,0,-1.6504,-1.6543,-1.6559,-1.6586,-1.663,-1.6637,-1.668,-1.6694,-1.6717,-1.6748,-1.6747,-1.6776,-1.6787,-1.6818,-1.6826,-1.6871,-1.6879,-1.6886,-1.6888,-1.6887,-1.6886,-1.6899,-1.6895,-1.6891,-1.689,-1.689,-1.6889,0,-1.6558,-1.657,-1.6618,-1.6646,-1.6654,-1.6684,-1.6708,-1.6735,-1.6746,-1.6785,-1.6795,-1.6813,-1.6849,-1.6862,-1.6906,-1.6912,-1.6964,-1.6962,-1.6954,-1.6955,-1.6984,-1.6981,-1.7075,-1.7088,-1.7012,-1.7012,-1.7013,0,-1.6597,-1.6627,-1.6657,-1.6677,-1.6693,-1.6725,-1.6746,-1.6755,-1.6777,-1.681,-1.6833,-1.6869,-1.6898,-1.6956,-1.6974,-1.7008,-1.7007,-1.7038,-1.7012,-1.701,-1.7008,-1.7006,-1.7009,-1.7043,-1.7043,-1.7044,-1.7045,0,-1.6666,-1.6671,-1.6701,-1.6733,-1.6758,-1.6784,-1.6809,-1.6826,-1.6839,-1.6863,-1.69,-1.6923,-1.6968,-1.7003,-1.7038,-1.7054,-1.7052,-1.7052,-1.7061,-1.706,-1.7054,-1.7058,-1.6968,-1.705,-1.705,-1.7049,-1.7049,-1.7049,-1.6714,-1.674,-1.6766,-1.6799,-1.6819,-1.6843,-1.6869,-1.6884,-1.6914,-1.6951,-1.6955,-1.6994,-1.7021,-1.7067,-1.7084,-1.7116,-1.7107,-1.712,-1.7123,-1.7126,-1.7129,-1.7049,-1.7122,-1.7122,-1.7122,-1.7122,-1.7122,0,-1.6783,-1.6799,-1.683,-1.6865,-1.6892,-1.6886,-1.6914,-1.6937,-1.6972,-1.6996,-1.7024,-1.7067,-1.7102,-1.7122,-1.7157,-1.7178,-1.7178,-1.7187,-1.7185,-1.7189,-1.7134,-1.7123,-1.7186,-1.7186,-1.7186,-1.7186,-1.7186,-1.7186,-1.6823,-1.6867,-1.6874,-1.6928,-1.6944,-1.6982,-1.6999,-1.702,-1.704,-1.7087,-1.7116,-1.7128,-1.7151,-1.7188,-1.7219,-1.7225,-1.7238,-1.7247,-1.7252,-1.72,-1.7193,-1.7187,-1.7177,-1.725,-1.725,-1.7304,-1.7305,-1.7305]},{"header":{"parameterUnit":"m.s-1","parameterCategory":1,"la1":30.2991,"la2":30.254,"lo1":-89.0895,"lo2":-89.0444,"dy":0.0017,"dx":0.0017,"nx":28,"ny":28,"refTime":"2024-04-05T09:00:00:Z","depth":0,"parameterNumber":3,"parameterNumberName":"V-component_of_WINDS"},"data":[0,0,0,0,0,0,0,0,0,0,0,0,0,0,0,0,0,0,0,0,0,0,0,0,0,0,0,0,0,0,0,0,0,0,0,0,0,0,0,0,0,0,0,0,0,0,0,0,0,0,0,0,0,0,0,0,0,0,3.3411,3.3411,0,3.3417,3.3418,3.3418,3.3348,3.3346,3.3344,3.3342,3.3348,3.335,3.3352,0,0,0,0,0,0,0,0,0,0,0,0,0,3.3338,3.3339,3.3411,3.3411,3.3411,3.3417,3.3418,3.3418,3.3348,3.3346,3.3344,3.3342,3.3347,3.335,3.3352,0,0,0,0,0,0,0,0,0,0,0,0,0,3.3359,3.334,3.3411,3.3378,3.3375,3.3417,3.3418,3.3418,3.3349,3.3346,3.3343,3.334,3.3347,3.3349,3.3352,3.3427,0,0,3.3361,3.3362,0,0,0,0,0,0,0,0,3.3358,3.3362,3.3383,3.338,3.3377,3.3379,3.3394,3.3421,3.335,3.3359,3.3342,3.3339,3.3361,3.3362,3.337,3.3427,3.3428,3.3361,3.3363,3.3364,3.3365,0,0,0,0,0,0,0,3.3357,3.3362,3.3414,3.3383,3.3379,3.3362,3.3362,3.3398,3.3376,3.3358,3.3353,3.3354,3.3358,3.3367,3.3369,3.3428,3.3361,3.3364,3.3366,3.3367,3.3545,3.3548,0,0,0,0,0,0,3.336,3.3361,3.3413,3.3414,3.336,3.3365,3.3365,3.3381,3.3375,3.3371,3.3357,3.3351,3.3363,3.3366,3.3369,3.3454,3.3364,3.3367,3.3369,3.3542,3.3546,3.3549,0,0,0,0,0,0,3.3359,3.3366,3.3413,3.3386,3.3391,3.337,3.3388,3.3383,3.3391,3.3374,3.337,3.337,3.3361,3.3365,3.3413,3.3454,3.3368,3.3371,3.3539,3.3543,3.3548,3.3627,0,0,0,0,0,0,3.3357,3.3365,3.3394,3.3387,3.3392,3.3458,3.3391,3.3385,3.3396,3.3389,3.3385,3.3382,3.3359,3.3409,3.3416,3.3456,3.3373,3.3535,3.3541,3.3546,3.3621,3.3634,3.3645,0,0,0,0,0,3.3355,3.3417,3.3396,3.3403,3.3428,3.346,3.3463,3.3436,3.34,3.3428,3.3417,3.3382,3.3449,3.3414,3.3421,3.3463,3.3532,3.3539,3.3546,3.3615,3.3631,3.3645,0,0,0,0,0,0,3.3429,3.3415,3.3392,3.3454,3.3459,3.3448,3.3483,3.3454,3.3469,3.3462,3.3427,3.3427,3.348,3.3477,3.3439,3.3535,3.3484,3.3492,3.3534,3.3549,3.3561,3.356,3.3376,0,0,0,0,0,3.3453,3.3481,3.3467,3.3522,3.3526,3.3505,3.3517,3.3496,3.35,3.3501,3.3494,3.3498,3.352,3.3535,3.3554,3.3621,3.3618,3.3653,3.3665,3.3675,3.3682,3.3715,3.373,3.3571,3.3571,3.3571,0,0,3.3502,3.3498,3.3517,3.3537,3.3538,3.3567,3.3507,3.354,3.356,3.3506,3.355,3.3545,3.3548,3.3605,3.3629,3.3604,3.3726,3.3684,3.3692,3.3693,3.3723,3.3738,3.3752,3.3576,3.3575,3.3574,0,0,3.3605,3.3606,3.3651,3.3653,3.3656,3.3641,3.3652,3.3646,3.364,3.3684,3.3644,3.3668,3.3706,3.3709,3.3716,3.3819,3.3787,3.3827,3.3889,3.3922,3.3934,3.3945,3.398,3.3993,3.3834,3.3835,3.3835,0,3.3665,3.3707,3.3678,3.3713,3.3722,3.3675,3.372,3.3724,3.3733,3.374,3.3711,3.3757,3.3756,3.3812,3.3837,3.3845,3.3855,3.3826,3.3935,3.3946,3.3955,3.3988,3.4001,3.3839,3.3839,3.3838,3.3838,0,3.378,3.3809,3.3846,3.3855,3.3868,3.3908,3.3885,3.3902,3.388,3.3867,3.3912,3.3909,3.3925,3.3938,3.3917,3.399,3.3974,3.3941,3.3889,3.3975,3.4005,3.4018,3.3846,3.3844,3.3843,3.3842,0,0,3.3929,3.3921,3.3935,3.3938,3.3937,3.3958,3.3996,3.4012,3.4027,3.4035,3.4064,3.4098,3.4067,3.4074,3.4053,3.4082,3.4162,3.4045,3.4044,3.4065,3.424,3.4264,3.4279,3.4141,3.4143,3.4145,3.4239,0,3.4028,3.4091,3.4066,3.4131,3.4156,3.4112,3.4144,3.4147,3.4137,3.4157,3.4145,3.4169,3.4127,3.4131,3.4158,3.4146,3.4196,3.414,3.4166,3.4168,3.4165,3.4295,3.432,3.4409,3.4251,3.4253,3.4255,0,3.4151,3.4163,3.4231,3.4223,3.4233,3.4263,3.4275,3.4295,3.4297,3.4287,3.4296,3.4268,3.4303,3.4253,3.43,3.4262,3.4272,3.4268,3.4271,3.4271,3.4215,3.4296,3.4437,3.4449,3.4273,3.4272,3.4271,0,3.425,3.4284,3.4328,3.4332,3.4325,3.4347,3.4345,3.4344,3.4355,3.4366,3.4372,3.4387,3.4395,3.4407,3.4384,3.435,3.4434,3.4382,3.4425,3.4426,3.4443,3.4442,3.4585,3.4454,3.4454,3.4453,3.4453,0,3.4362,3.4404,3.4372,3.4399,3.4445,3.4415,3.4461,3.4454,3.4454,3.4478,3.4441,3.4465,3.4434,3.4454,3.4436,3.4477,3.4481,3.4474,3.4468,3.4476,3.4476,3.448,3.4472,3.4457,3.4456,3.4456,3.4455,0,3.4479,3.446,3.4504,3.4494,3.4493,3.4527,3.4518,3.4542,3.4529,3.456,3.4566,3.4546,3.4568,3.4546,3.4567,3.4555,3.4609,3.4596,3.4608,3.4604,3.4647,3.4643,3.4796,3.4814,3.4673,3.4674,3.4676,0,3.4551,3.4582,3.4575,3.4589,3.4589,3.4611,3.4622,3.4594,3.4607,3.461,3.4634,3.4653,3.4666,3.4703,3.469,3.4705,3.4691,3.4743,3.4693,3.4699,3.4689,3.4686,3.4688,3.4753,3.4755,3.4756,3.4757,0,3.4679,3.4667,3.4684,3.4697,3.4711,3.472,3.4726,3.4739,3.471,3.4726,3.4748,3.4758,3.4779,3.4798,3.4809,3.4807,3.4777,3.4774,3.4784,3.4791,3.4796,3.4791,3.4634,3.477,3.4768,3.4767,3.4767,3.4766,3.4773,3.4798,3.4797,3.4816,3.4818,3.4825,3.4846,3.4836,3.4853,3.4868,3.485,3.4877,3.4876,3.4889,3.489,3.491,3.4887,3.4903,3.4906,3.491,3.4915,3.4795,3.4912,3.4912,3.4911,3.4911,3.4911,0,3.4897,3.4894,3.4912,3.4921,3.4937,3.4908,3.4913,3.4927,3.4951,3.4953,3.4967,3.4991,3.5009,3.4997,3.5012,3.503,3.5016,3.5035,3.5032,3.5031,3.4936,3.4924,3.5045,3.5045,3.5045,3.5045,3.5045,3.5045,3.4963,3.5003,3.4991,3.5031,3.5028,3.5053,3.5058,3.5063,3.5065,3.5093,3.5107,3.51,3.5096,3.5111,3.5125,3.5121,3.5128,3.515,3.5141,3.5052,3.5038,3.5026,3.5014,3.5152,3.5153,3.5235,3.5236,3.5236]}]]